Location: Ceske Budejovice
(48.9830°N, 14.4670°E)
Time: 04:05:21
(UTC+02:00)

ISS - Pass Details

Date: 01 April 2019
Orbit: 411 x 421 km, 51.6° (Epoch: 14 October)

Event Time Altitude Azimuth Distance (km) Brightness Sun altitude
Rises 21:36:25 0° 290° (WNW) 2,352 1.5 -19.7°
Reaches altitude 10° 21:38:31 10° 288° (WNW) 1,486 0.1 -20.0°
Enters shadow 21:41:36 67° 240° (WSW) 449 -3.6 -20.4°
